QPF
0.01 0.01 0.01 0.02 0.02 0.03 0.03 0.03 0.03 0.02 0.02 0.02 0.02 0.03 0.04 0.03 0.03 0.03 0.03 0.02 0.02 0.02 0.02 0.02 0.02 0.02 0.03 0.03 0.03 0.02 0.02 0.02 0.02 0.02 0.02 0.01 0.01 0.01 0.00 0.00 0.00 0.00 0.00 0.00
0.01 0.01 0.01 0.01 0.01 0.01 0.02 0.02 0.02 0.01 0.02 0.02 0.02 0.03 0.03 0.03 0.03 0.02 0.02 0.02 0.02 0.01 0.01 0.01 0.01 0.02 0.02 0.02 0.02 0.02 0.01 0.02 0.02 0.02 0.02 0.02 0.01 0.01 0.01 0.00 0.00 0.00 0.00 0.00
0.02 0.01 0.01 0.02 0.02 0.02 0.02 0.03 0.02 0.03 0.03 0.02 0.02 0.03 0.03 0.03 0.03 0.02 0.02 0.02 0.02 0.01 0.01 0.01 0.01 0.01 0.01 0.02 0.01 0.01 0.01 0.01 0.01 0.01 0.02 0.02 0.01 0.01 0.01 0.01 0.01 0.00 0.00 0.00
0.03 0.02 0.03 0.02 0.02 0.02 0.02 0.03 0.03 0.03 0.03 0.02 0.03 0.03 0.03 0.03 0.02 0.02 0.02 0.02 0.02 0.01 0.01 0.01 0.01 0.01 0.01 0.01 0.01 0.01 0.01 0.01 0.01 0.01 0.02 0.02 0.02 0.02 0.02 0.01 0.01 0.01 0.00 0.00
0.03 0.03 0.02 0.01 0.01 0.02 0.02 0.03 0.03 0.03 0.02 0.02 0.02 0.02 0.02 0.03 0.03 0.02 0.02 0.02 0.02 0.02 0.01 0.01 0.01 0.01 0.01 0.02 0.01 0.01 0.01 0.01 0.01 0.01 0.01 0.01 0.02 0.02 0.02 0.02 0.01 0.01 0.01 0.00
0.03 0.03 0.02 0.01 0.01 0.01 0.02 0.03 0.02 0.02 0.03 0.03 0.02 0.02 0.03 0.02 0.02 0.02 0.02 0.02 0.03 0.03 0.02 0.02 0.02 0.02 0.02 0.02 0.02 0.01 0.01 0.01 0.01 0.01 0.01 0.01 0.01 0.01 0.01 0.01 0.01 0.01 0.00 0.00
0.03 0.03 0.02 0.01 0.01 0.01 0.02 0.03 0.02 0.03 0.03 0.03 0.03 0.03 0.02 0.02 0.02 0.02 0.02 0.02 0.03 0.03 0.02 0.02 0.02 0.02 0.02 0.02 0.01 0.01 0.01 0.01 0.01 0.01 0.01 0.01 0.01 0.01 0.01 0.01 0.01 0.01 0.00 0.00
0.02 0.03 0.03 0.01 0.01 0.02 0.03 0.02 0.02 0.02 0.02 0.02 0.01 0.02 0.02 0.01 0.02 0.02 0.02 0.02 0.03 0.03 0.03 0.02 0.02 0.01 0.01 0.02 0.02 0.01 0.01 0.01 0.01 0.01 0.01 0.01 0.01 0.01 0.01 0.01 0.01 0.01 0.01 0.01
0.02 0.02 0.02 0.02 0.02 0.02 0.02 0.02 0.01 0.01 0.01 0.01 0.01 0.02 0.02 0.01 0.01 0.02 0.02 0.02 0.03 0.03 0.03 0.03 0.02 0.02 0.02 0.03 0.02 0.01 0.01 0.01 0.01 0.01 0.01 0.01 0.01 0.01 0.01 0.01 0.01 0.01 0.01 0.01
0.01 0.01 0.02 0.02 0.01 0.01 0.01 0.01 0.01 0.01 0.01 0.01 0.02 0.02 0.02 0.01 0.02 0.02 0.02 0.02 0.02 0.02 0.03 0.03 0.03 0.03 0.04 0.03 0.02 0.01 0.01 0.01 0.01 0.02 0.02 0.02 0.01 0.01 0.01 0.01 0.01 0.01 0.01 0.01
0.01 0.01 0.01 0.01 0.01 0.01 0.01 0.01 0.01 0.01 0.01 0.01 0.01 0.02 0.02 0.02 0.02 0.02 0.02 0.02 0.02 0.02 0.03 0.03 0.03 0.03 0.03 0.03 0.03 0.02 0.02 0.02 0.02 0.02 0.02 0.01 0.01 0.01 0.01 0.01 0.01 0.01 0.01 0.01
0.01 0.01 0.01 0.01 0.01 0.01 0.01 0.01 0.01 0.01 0.01 0.01 0.01 0.01 0.01 0.01 0.01 0.01 0.02 0.02 0.02 0.02 0.02 0.03 0.03 0.03 0.03 0.03 0.03 0.03 0.03 0.03 0.02 0.02 0.02 0.01 0.01 0.01 0.01 0.01 0.01 0.01 0.01 0.02
0.01 0.01 0.01 0.01 0.01 0.01 0.01 0.01 0.01 0.01 0.01 0.01 0.01 0.01 0.01 0.01 0.01 0.01 0.02 0.02 0.02 0.02 0.02 0.03 0.03 0.03 0.03 0.03 0.03 0.03 0.03 0.02 0.02 0.02 0.02 0.01 0.01 0.01 0.01 0.01 0.01 0.01 0.01 0.01
0.01 0.01 0.01 0.01 0.01 0.01 0.01 0.01 0.01 0.01 0.01 0.01 0.01 0.01 0.01 0.01 0.02 0.02 0.02 0.03 0.03 0.03 0.02 0.02 0.02 0.02 0.02 0.02 0.02 0.02 0.02 0.02 0.02 0.02 0.01 0.01 0.01 0.01 0.01 0.01 0.01 0.01 0.01 0.01
0.00 0.00 0.01 0.01 0.01 0.01 0.02 0.02 0.02 0.02 0.01 0.01 0.01 0.01 0.01 0.02 0.02 0.02 0.02 0.03 0.03 0.02 0.02 0.02 0.02 0.02 0.02 0.02 0.02 0.02 0.02 0.02 0.02 0.02 0.02 0.02 0.01 0.01 0.01 0.01 0.01 0.01 0.01 0.01
0.01 0.01 0.01 0.01 0.02 0.02 0.02 0.02 0.02 0.02 0.02 0.01 0.01 0.01 0.02 0.02 0.02 0.02 0.02 0.02 0.02 0.02 0.02 0.02 0.02 0.02 0.02 0.02 0.02 0.02 0.02 0.02 0.02 0.02 0.02 0.02 0.01 0.01 0.01 0.01 0.01 0.01 0.01 0.01
0.01 0.01 0.01 0.02 0.02 0.02 0.02 0.02 0.02 0.02 0.01 0.01 0.01 0.01 0.01 0.01 0.01 0.01 0.01 0.01 0.01 0.01 0.01 0.01 0.02 0.02 0.02 0.02 0.02 0.02 0.02 0.02 0.02 0.02 0.02 0.01 0.01 0.01 0.01 0.01 0.01 0.01 0.01 0.01
0.02 0.02 0.02 0.02 0.02 0.02 0.02 0.02 0.01 0.01 0.01 0.01 0.01 0.01 0.01 0.01 0.01 0.01 0.01 0.01 0.01 0.01 0.01 0.01 0.01 0.01 0.02 0.02 0.02 0.02 0.02 0.01 0.01 0.01 0.01 0.01 0.01 0.01 0.01 0.01 0.01 0.01 0.01 0.01
0.02 0.02 0.02 0.02 0.02 0.01 0.01 0.01 0.01 0.01 0.01 0.01 0.01 0.01 0.01 0.01 0.01 0.01 0.01 0.01 0.01 0.01 0.01 0.01 0.02 0.02 0.01 0.01 0.01 0.01 0.01 0.01 0.01 0.01 0.01 0.01 0.01 0.01 0.01 0.01 0.01 0.01 0.01 0.01
0.02 0.01 0.01 0.01 0.01 0.01 0.01 0.01 0.01 0.01 0.01 0.01 0.01 0.01 0.01 0.01 0.01 0.01 0.01 0.01 0.01 0.01 0.01 0.01 0.02 0.02 0.02 0.02 0.02 0.02 0.01 0.01 0.01 0.01 0.01 0.01 0.01 0.01 0.01 0.01 0.01 0.01 0.01 0.01
0.01 0.01 0.01 0.01 0.01 0.01 0.01 0.01 0.01 0.01 0.01 0.01 0.01 0.01 0.01 0.01 0.01 0.01 0.01 0.01 0.01 0.01 0.01 0.01 0.01 0.01 0.02 0.02 0.02 0.02 0.01 0.01 0.01 0.01 0.01 0.01 0.01 0.01 0.01 0.00 0.00 0.00 0.00 0.00
0.01 0.01 0.01 0.01 0.01 0.01 0.01 0.01 0.01 0.01 0.01 0.01 0.01 0.01 0.00 0.01 0.01 0.01 0.01 0.01 0.01 0.01 0.01 0.01 0.01 0.02 0.02 0.02 0.01 0.01 0.01 0.01 0.01 0.01 0.01 0.01 0.01 0.00 0.00 0.00 0.00 0.00 0.00 0.00
0.01 0.01 0.01 0.01 0.01 0.01 0.01 0.01 0.01 0.01 0.01 0.01 0.01 0.00 0.00 0.00 0.00 0.00 0.01 0.01 0.01 0.01 0.01 0.01 0.01 0.02 0.01 0.01 0.01 0.01 0.01 0.01 0.01 0.01 0.01 0.00 0.00 0.00 0.00 0.00 0.00 0.00 0.00 0.00
0.01 0.01 0.01 0.00 0.00 0.00 0.01 0.01 0.00 0.00 0.00 0.00 0.00 0.00 0.00 0.00 0.00 0.00 0.01 0.01 0.01 0.01 0.01 0.01 0.01 0.01 0.01 0.01 0.01 0.00 0.00 0.00 0.00 0.00 0.00 0.00 0.00 0.00 0.00 0.00 0.00 0.00 0.00 0.00
0.01 0.01 0.00 0.00 0.00 0.00 0.00 0.00 0.00 0.00 0.00 0.00 0.00 0.00 0.00 0.00 0.00 0.00 0.00 0.01 0.01 0.01 0.00 0.01 0.01 0.01 0.00 0.00 0.00 0.00 0.00 0.00 0.00 0.00 0.00 0.00 0.00 0.00 0.00 0.00 0.00 0.00 0.00 0.00
0.00 0.00 0.00 0.00 0.00 0.00 0.00 0.00 0.00 0.00 0.00 0.00 0.00 0.00 0.00 0.00 0.00 0.00 0.00 0.00 0.00 0.00 0.00 0.00 0.00 0.00 0.00 0.00 0.00 0.00 0.00 0.00 0.00 0.00 0.00 0.00 0.00 0.00 0.00 0.00 0.00 0.00 0.00 0.00
0.00 0.00 0.00 0.00 0.00 0.00 0.00 0.00 0.00 0.00 0.00 0.00 0.00 0.01 0.01 0.01 0.00 0.00 0.00 0.00 0.00 0.00 0.00 0.00 0.00 0.00 0.00 0.00 0.00 0.00 0.00 0.00 0.00 0.00 0.00 0.00 0.00 0.00 0.00 0.00 0.00 0.00 0.00 0.00
MSLP
995.48 997.20 999.10 1001.07 1003.01 1004.86 1006.57 1008.16 1009.65 1011.07 1012.43 1013.76 1015.03 1016.19 1017.17 1017.92 1018.37 1018.47 1018.23 1017.67 1016.85 1015.87 1014.83 1013.82 1012.92 1012.18 1011.63 1011.27 1011.06 1010.98 1011.00 1011.07 1011.18 1011.35 1011.56 1011.85 1012.22 1012.69 1013.24 1013.86 1014.53 1015.22 1015.91 1016.57
998.15 1000.27 1002.58 1004.92 1007.16 1009.21 1011.01 1012.56 1013.87 1014.98 1015.94 1016.80 1017.58 1018.26 1018.84 1019.27 1019.51 1019.52 1019.29 1018.82 1018.15 1017.33 1016.43 1015.51 1014.65 1013.88 1013.23 1012.72 1012.35 1012.08 1011.90 1011.81 1011.79 1011.84 1011.97 1012.20 1012.51 1012.93 1013.42 1013.99 1014.61 1015.24 1015.88 1016.50
1001.50 1003.97 1006.60 1009.21 1011.65 1013.81 1015.61 1017.04 1018.11 1018.88 1019.42 1019.80 1020.08 1020.30 1020.47 1020.58 1020.61 1020.53 1020.31 1019.93 1019.40 1018.74 1017.98 1017.17 1016.36 1015.58 1014.87 1014.24 1013.71 1013.27 1012.94 1012.69 1012.54 1012.48 1012.53 1012.68 1012.93 1013.28 1013.71 1014.21 1014.76 1015.34 1015.91 1016.48
1005.34 1008.01 1010.79 1013.50 1015.99 1018.12 1019.82 1021.06 1021.86 1022.30 1022.44 1022.40 1022.25 1022.07 1021.90 1021.76 1021.63 1021.48 1021.27 1020.98 1020.58 1020.07 1019.45 1018.75 1018.00 1017.22 1016.46 1015.74 1015.09 1014.52 1014.05 1013.68 1013.41 1013.25 1013.21 1013.28 1013.46 1013.72 1014.08 1014.49 1014.96 1015.46 1015.97 1016.48
1009.40 1012.08 1014.81 1017.43 1019.78 1021.73 1023.22 1024.23 1024.76 1024.89 1024.72 1024.36 1023.91 1023.46 1023.06 1022.75 1022.52 1022.35 1022.18 1021.98 1021.70 1021.32 1020.82 1020.21 1019.51 1018.75 1017.96 1017.18 1016.45 1015.78 1015.21 1014.74 1014.38 1014.14 1014.01 1014.00 1014.08 1014.26 1014.51 1014.82 1015.19 1015.59 1016.03 1016.48
1013.45 1015.93 1018.40 1020.73 1022.78 1024.44 1025.65 1026.39 1026.67 1026.58 1026.21 1025.66 1025.05 1024.46 1023.97 1023.60 1023.35 1023.19 1023.07 1022.95 1022.77 1022.48 1022.07 1021.53 1020.88 1020.14 1019.34 1018.53 1017.75 1017.04 1016.40 1015.87 1015.45 1015.14 1014.93 1014.83 1014.82 1014.89 1015.02 1015.22 1015.47 1015.77 1016.11 1016.49
1017.30 1019.40 1021.44 1023.34 1024.97 1026.25 1027.14 1027.62 1027.72 1027.49 1027.03 1026.43 1025.80 1025.21 1024.73 1024.38 1024.17 1024.05 1023.99 1023.93 1023.81 1023.58 1023.23 1022.74 1022.12 1021.39 1020.61 1019.80 1019.01 1018.28 1017.62 1017.06 1016.60 1016.24 1015.97 1015.79 1015.68 1015.63 1015.65 1015.72 1015.85 1016.03 1016.27 1016.57
1020.81 1022.41 1023.94 1025.32 1026.48 1027.37 1027.95 1028.22 1028.19 1027.91 1027.47 1026.93 1026.38 1025.89 1025.50 1025.23 1025.08 1025.01 1024.99 1024.95 1024.85 1024.64 1024.31 1023.83 1023.23 1022.53 1021.77 1020.98 1020.21 1019.50 1018.85 1018.29 1017.82 1017.43 1017.11 1016.85 1016.65 1016.50 1016.40 1016.34 1016.34 1016.41 1016.55 1016.77
1023.91 1024.99 1025.98 1026.85 1027.57 1028.09 1028.41 1028.53 1028.44 1028.20 1027.85 1027.44 1027.04 1026.69 1026.42 1026.24 1026.14 1026.10 1026.08 1026.02 1025.89 1025.66 1025.30 1024.82 1024.23 1023.55 1022.82 1022.08 1021.35 1020.68 1020.07 1019.53 1019.07 1018.66 1018.31 1018.00 1017.72 1017.47 1017.26 1017.09 1016.98 1016.94 1016.99 1017.12
1026.57 1027.18 1027.70 1028.14 1028.49 1028.73 1028.87 1028.89 1028.81 1028.65 1028.43 1028.18 1027.93 1027.72 1027.55 1027.43 1027.35 1027.29 1027.21 1027.09 1026.89 1026.59 1026.19 1025.69 1025.10 1024.44 1023.76 1023.07 1022.40 1021.79 1021.23 1020.73 1020.29 1019.89 1019.51 1019.16 1018.82 1018.50 1018.20 1017.95 1017.74 1017.61 1017.57 1017.63
1028.79 1029.04 1029.22 1029.34 1029.43 1029.50 1029.53 1029.53 1029.50 1029.44 1029.34 1029.23 1029.10 1028.98 1028.86 1028.74 1028.62 1028.48 1028.30 1028.07 1027.77 1027.39 1026.93 1026.40 1025.81 1025.18 1024.54 1023.92 1023.32 1022.77 1022.27 1021.82 1021.40 1021.01 1020.63 1020.25 1019.88 1019.51 1019.15 1018.83 1018.57 1018.37 1018.27 1018.26
1030.59 1030.62 1030.59 1030.54 1030.49 1030.47 1030.48 1030.50 1030.53 1030.55 1030.54 1030.51 1030.44 1030.33 1030.19 1030.01 1029.79 1029.52 1029.22 1028.86 1028.44 1027.97 1027.45 1026.89 1026.31 1025.72 1025.14 1024.58 1024.05 1023.57 1023.12 1022.71 1022.32 1021.94 1021.56 1021.18 1020.79 1020.41 1020.03 1019.68 1019.39 1019.15 1019.01 1018.95
1031.99 1031.93 1031.82 1031.70 1031.62 1031.59 1031.61 1031.66 1031.73 1031.80 1031.83 1031.81 1031.72 1031.56 1031.34 1031.04 1030.69 1030.28 1029.83 1029.34 1028.82 1028.28 1027.72 1027.15 1026.59 1026.04 1025.52 1025.02 1024.56 1024.13 1023.73 1023.35 1022.99 1022.63 1022.26 1021.89 1021.52 1021.14 1020.77 1020.43 1020.12 1019.88 1019.72 1019.64
1033.01 1032.95 1032.84 1032.74 1032.68 1032.67 1032.71 1032.78 1032.86 1032.92 1032.93 1032.87 1032.71 1032.46 1032.11 1031.68 1031.19 1030.64 1030.07 1029.47 1028.88 1028.29 1027.71 1027.16 1026.64 1026.14 1025.67 1025.23 1024.82 1024.44 1024.07 1023.72 1023.38 1023.04 1022.70 1022.36 1022.01 1021.66 1021.33 1021.01 1020.74 1020.51 1020.34 1020.24
1033.66 1033.64 1033.58 1033.52 1033.49 1033.50 1033.55 1033.62 1033.67 1033.68 1033.63 1033.48 1033.22 1032.85 1032.38 1031.83 1031.22 1030.57 1029.91 1029.25 1028.62 1028.02 1027.47 1026.95 1026.47 1026.02 1025.61 1025.22 1024.85 1024.50 1024.16 1023.83 1023.51 1023.20 1022.89 1022.58 1022.28 1021.98 1021.70 1021.44 1021.20 1021.00 1020.84 1020.73
1033.97 1033.99 1033.97 1033.94 1033.93 1033.93 1033.95 1033.98 1033.97 1033.91 1033.76 1033.52 1033.16 1032.69 1032.13 1031.49 1030.81 1030.10 1029.41 1028.74 1028.12 1027.55 1027.03 1026.57 1026.14 1025.74 1025.37 1025.02 1024.68 1024.35 1024.03 1023.72 1023.42 1023.13 1022.86 1022.60 1022.36 1022.13 1021.91 1021.71 1021.52 1021.35 1021.20 1021.09
1033.95 1034.00 1033.98 1033.95 1033.91 1033.87 1033.84 1033.79 1033.70 1033.55 1033.32 1032.99 1032.56 1032.03 1031.42 1030.76 1030.06 1029.36 1028.69 1028.05 1027.47 1026.96 1026.49 1026.08 1025.70 1025.34 1025.00 1024.67 1024.35 1024.03 1023.72 1023.43 1023.15 1022.90 1022.67 1022.47 1022.29 1022.13 1021.98 1021.83 1021.69 1021.55 1021.42 1021.31
1033.65 1033.68 1033.63 1033.55 1033.45 1033.34 1033.23 1033.09 1032.92 1032.70 1032.40 1032.03 1031.57 1031.03 1030.43 1029.78 1029.13 1028.48 1027.86 1027.29 1026.78 1026.32 1025.91 1025.54 1025.19 1024.86 1024.54 1024.22 1023.90 1023.59 1023.29 1023.01 1022.76 1022.54 1022.36 1022.21 1022.10 1021.99 1021.90 1021.81 1021.72 1021.61 1021.50 1021.38
1033.12 1033.09 1032.98 1032.83 1032.64 1032.45 1032.25 1032.03 1031.80 1031.52 1031.20 1030.82 1030.37 1029.87 1029.32 1028.75 1028.17 1027.60 1027.06 1026.56 1026.11 1025.70 1025.32 1024.98 1024.65 1024.32 1024.00 1023.68 1023.36 1023.05 1022.75 1022.49 1022.26 1022.08 1021.94 1021.84 1021.77 1021.72 1021.67 1021.63 1021.57 1021.49 1021.39 1021.27
1032.41 1032.32 1032.13 1031.89 1031.63 1031.35 1031.08 1030.81 1030.53 1030.24 1029.92 1029.57 1029.18 1028.75 1028.28 1027.80 1027.30 1026.82 1026.35 1025.91 1025.49 1025.11 1024.74 1024.40 1024.06 1023.72 1023.39 1023.05 1022.72 1022.41 1022.12 1021.87 1021.67 1021.51 1021.39 1021.33 1021.29 1021.27 1021.26 1021.24 1021.20 1021.14 1021.05 1020.96
1031.59 1031.43 1031.18 1030.87 1030.54 1030.21 1029.89 1029.59 1029.30 1029.02 1028.74 1028.44 1028.12 1027.77 1027.39 1026.99 1026.57 1026.14 1025.72 1025.31 1024.91 1024.53 1024.15 1023.78 1023.42 1023.06 1022.70 1022.35 1022.01 1021.69 1021.41 1021.16 1020.97 1020.82 1020.72 1020.66 1020.63 1020.63 1020.62 1020.61 1020.59 1020.55 1020.48 1020.41
1030.71 1030.50 1030.20 1029.85 1029.48 1029.12 1028.79 1028.49 1028.22 1027.98 1027.74 1027.51 1027.25 1026.97 1026.66 1026.32 1025.95 1025.56 1025.15 1024.74 1024.33 1023.92 1023.51 1023.11 1022.71 1022.32 1021.94 1021.57 1021.22 1020.90 1020.62 1020.38 1020.18 1020.03 1019.92 1019.85 1019.81 1019.79 1019.78 1019.76 1019.74 1019.71 1019.68 1019.64
1029.80 1029.57 1029.25 1028.89 1028.51 1028.16 1027.84 1027.56 1027.33 1027.13 1026.95 1026.76 1026.56 1026.32 1026.05 1025.74 1025.39 1025.00 1024.58 1024.15 1023.70 1023.26 1022.81 1022.37 1021.95 1021.53 1021.14 1020.76 1020.41 1020.08 1019.80 1019.55 1019.34 1019.17 1019.03 1018.93 1018.86 1018.80 1018.77 1018.73 1018.71 1018.69 1018.69 1018.70
1028.89 1028.66 1028.35 1028.00 1027.64 1027.32 1027.03 1026.80 1026.60 1026.44 1026.30 1026.15 1025.98 1025.77 1025.51 1025.19 1024.83 1024.42 1023.98 1023.51 1023.03 1022.55 1022.07 1021.61 1021.16 1020.74 1020.34 1019.96 1019.61 1019.29 1019.00 1018.74 1018.50 1018.30 1018.13 1017.98 1017.86 1017.76 1017.69 1017.64 1017.61 1017.60 1017.63 1017.69
1027.99 1027.77 1027.48 1027.16 1026.85 1026.57 1026.33 1026.14 1025.98 1025.86 1025.74 1025.61 1025.45 1025.24 1024.97 1024.64 1024.25 1023.81 1023.34 1022.84 1022.33 1021.83 1021.34 1020.87 1020.42 1020.01 1019.62 1019.25 1018.91 1018.59 1018.29 1018.01 1017.75 1017.51 1017.29 1017.09 1016.92 1016.78 1016.67 1016.60 1016.56 1016.57 1016.63 1016.74
1027.11 1026.90 1026.65 1026.38 1026.11 1025.88 1025.69 1025.54 1025.42 1025.32 1025.22 1025.09 1024.93 1024.70 1024.42 1024.06 1023.65 1023.20 1022.70 1022.19 1021.68 1021.17 1020.69 1020.23 1019.80 1019.41 1019.04 1018.69 1018.36 1018.04 1017.73 1017.43 1017.13 1016.85 1016.59 1016.34 1016.13 1015.95 1015.81 1015.73 1015.70 1015.72 1015.81 1015.95
1026.24 1026.06 1025.84 1025.62 1025.41 1025.23 1025.09 1024.98 1024.89 1024.81 1024.72 1024.59 1024.42 1024.18 1023.88 1023.52 1023.09 1022.63 1022.14 1021.63 1021.13 1020.65 1020.19 1019.76 1019.36 1018.99 1018.63 1018.30 1017.97 1017.65 1017.32 1016.99 1016.67 1016.35 1016.04 1015.76 1015.52 1015.31 1015.17 1015.08 1015.05 1015.09 1015.20 1015.37
Thickness
5441 5443 5441 5437 5436 5436 5436 5439 5439 5444 5442 5443 5438 5435 5434 5434 5433 5430 5428 5427 5425 5422 5420 5418 5416 5414 5413 5411 5408 5406 5403 5400 5398 5395 5392 5389 5386 5383 5380 5376 5374 5371 5368 5365
5426 5433 5432 5426 5427 5428 5426 5425 5426 5429 5427 5429 5426 5423 5421 5420 5419 5416 5415 5414 5412 5410 5408 5406 5404 5402 5400 5398 5396 5394 5391 5388 5385 5382 5379 5376 5373 5370 5367 5364 5361 5358 5355 5352
5421 5425 5421 5410 5415 5418 5413 5412 5414 5413 5414 5413 5412 5410 5406 5406 5404 5402 5401 5400 5399 5398 5396 5394 5392 5390 5388 5386 5384 5381 5378 5375 5372 5369 5366 5363 5360 5357 5354 5351 5348 5345 5342 5339
5409 5408 5400 5412 5410 5411 5406 5402 5401 5402 5401 5400 5398 5396 5395 5394 5393 5391 5390 5387 5386 5385 5384 5383 5381 5378 5376 5374 5372 5368 5365 5362 5359 5356 5353 5350 5347 5343 5341 5338 5335 5332 5330 5327
5395 5394 5399 5404 5398 5394 5392 5390 5388 5388 5388 5386 5386 5387 5385 5383 5381 5379 5378 5376 5375 5374 5372 5370 5368 5366 5364 5361 5358 5355 5352 5349 5346 5344 5340 5337 5333 5330 5327 5324 5322 5320 5317 5314
5387 5387 5389 5390 5383 5386 5386 5382 5379 5377 5374 5373 5375 5374 5372 5369 5368 5366 5365 5364 5363 5361 5360 5357 5354 5352 5350 5347 5344 5342 5339 5336 5333 5330 5327 5324 5320 5317 5314 5312 5309 5307 5305 5302
5372 5373 5375 5371 5370 5378 5374 5373 5367 5366 5362 5359 5357 5357 5354 5354 5353 5352 5352 5351 5350 5349 5347 5344 5341 5339 5336 5333 5330 5328 5325 5323 5319 5316 5313 5310 5307 5304 5302 5299 5296 5293 5291 5290
5362 5364 5364 5356 5358 5357 5356 5355 5355 5353 5350 5346 5343 5342 5341 5340 5339 5338 5337 5337 5336 5335 5333 5330 5327 5325 5322 5319 5316 5314 5312 5309 5305 5302 5300 5297 5294 5291 5288 5285 5282 5280 5278 5277
5356 5357 5353 5347 5346 5344 5342 5341 5341 5338 5336 5332 5330 5329 5328 5326 5325 5324 5323 5322 5322 5320 5318 5315 5313 5311 5307 5304 5302 5300 5297 5294 5291 5289 5286 5283 5280 5278 5275 5272 5269 5267 5265 5264
5346 5346 5344 5339 5336 5333 5332 5329 5327 5325 5322 5320 5318 5316 5314 5313 5311 5310 5309 5308 5306 5305 5303 5301 5298 5296 5293 5290 5287 5285 5282 5280 5278 5275 5272 5269 5267 5265 5261 5258 5256 5254 5252 5251
5335 5334 5333 5332 5327 5322 5320 5317 5314 5312 5310 5308 5306 5304 5301 5299 5297 5296 5296 5294 5292 5290 5288 5285 5283 5280 5278 5275 5273 5270 5268 5266 5264 5262 5259 5256 5254 5251 5248 5246 5244 5241 5239 5238
5327 5326 5322 5320 5316 5312 5308 5305 5302 5299 5297 5295 5294 5291 5288 5286 5284 5282 5281 5280 5278 5276 5274 5271 5268 5265 5263 5261 5259 5256 5254 5252 5250 5248 5246 5243 5240 5238 5236 5234 5232 5231 5229 5227
5317 5313 5310 5307 5304 5300 5296 5293 5290 5288 5285 5282 5280 5278 5275 5273 5271 5269 5267 5265 5263 5261 5259 5256 5253 5251 5249 5247 5245 5243 5241 5239 5237 5235 5233 5230 5228 5225 5223 5221 5220 5218 5217 5216
5303 5300 5296 5294 5291 5287 5283 5280 5277 5274 5272 5270 5267 5265 5262 5260 5258 5255 5253 5251 5249 5247 5245 5242 5239 5237 5235 5233 5232 5230 5228 5226 5224 5222 5219 5217 5215 5212 5210 5208 5206 5205 5204 5204
5292 5290 5285 5282 5278 5275 5271 5268 5265 5261 5259 5256 5254 5252 5249 5247 5244 5242 5240 5239 5236 5234 5231 5228 5226 5224 5222 5221 5219 5217 5215 5213 5211 5209 5207 5205 5202 5200 5198 5195 5193 5192 5191 5190
5280 5277 5274 5270 5267 5263 5260 5257 5253 5250 5247 5244 5242 5239 5237 5235 5232 5230 5228 5226 5224 5221 5219 5216 5214 5212 5211 5209 5207 5205 5203 5202 5200 5197 5195 5192 5190 5187 5184 5182 5180 5179 5178 5177
5268 5266 5263 5259 5256 5253 5250 5247 5244 5240 5237 5234 5231 5228 5226 5224 5221 5219 5216 5214 5212 5210 5208 5206 5204 5202 5200 5198 5195 5193 5191 5189 5189 5186 5183 5180 5177 5174 5171 5169 5167 5166 5165 5164
5262 5259 5256 5252 5248 5244 5241 5238 5234 5231 5227 5224 5222 5219 5216 5213 5211 5208 5205 5203 5201 5199 5198 5196 5194 5192 5189 5187 5185 5182 5180 5178 5176 5173 5170 5167 5165 5162 5159 5157 5155 5153 5152 5151
5251 5248 5245 5243 5240 5236 5232 5228 5225 5222 5218 5215 5213 5209 5206 5204 5201 5198 5195 5192 5190 5189 5188 5186 5184 5181 5179 5176 5174 5171 5169 5167 5164 5161 5159 5157 5154 5151 5148 5146 5143 5141 5140 5139
5241 5238 5235 5233 5230 5227 5223 5219 5216 5212 5209 5206 5203 5199 5196 5193 5191 5188 5185 5182 5181 5180 5178 5176 5174 5171 5168 5166 5164 5161 5158 5155 5153 5150 5147 5144 5142 5139 5137 5135 5133 5131 5129 5128
5231 5228 5225 5222 5219 5216 5214 5211 5207 5203 5200 5197 5193 5190 5187 5184 5181 5178 5175 5173 5172 5170 5168 5167 5164 5161 5158 5156 5154 5150 5148 5145 5142 5139 5136 5134 5131 5129 5127 5125 5123 5121 5119 5118
5221 5218 5215 5213 5209 5206 5204 5201 5198 5195 5191 5187 5184 5181 5177 5174 5171 5168 5166 5164 5163 5162 5159 5156 5154 5152 5150 5147 5143 5140 5137 5135 5132 5129 5126 5124 5121 5119 5117 5115 5113 5112 5110 5108
5213 5210 5206 5204 5200 5197 5194 5191 5188 5185 5181 5178 5174 5171 5167 5164 5161 5159 5157 5155 5154 5152 5150 5147 5145 5144 5142 5137 5134 5131 5128 5125 5122 5120 5117 5115 5112 5110 5108 5106 5104 5102 5101 5100
5204 5201 5198 5195 5191 5188 5184 5182 5179 5176 5172 5169 5166 5162 5158 5154 5152 5150 5148 5147 5145 5143 5140 5138 5137 5135 5133 5128 5125 5121 5119 5116 5113 5111 5108 5106 5104 5101 5099 5097 5096 5095 5093 5092
5195 5192 5189 5186 5183 5180 5177 5173 5170 5166 5163 5160 5157 5153 5150 5146 5143 5141 5138 5137 5136 5134 5131 5129 5128 5126 5122 5119 5116 5113 5110 5107 5105 5102 5100 5098 5096 5093 5092 5090 5089 5088 5087 5086
5187 5184 5182 5179 5175 5172 5168 5165 5161 5158 5155 5151 5148 5144 5141 5138 5135 5133 5130 5128 5126 5125 5122 5120 5117 5115 5112 5109 5107 5104 5102 5100 5097 5094 5092 5090 5088 5086 5084 5083 5082 5081 5080 5079
5180 5176 5173 5169 5167 5163 5160 5156 5152 5149 5146 5142 5138 5136 5133 5130 5127 5124 5122 5120 5118 5115 5113 5111 5108 5106 5103 5101 5099 5096 5094 5092 5090 5087 5085 5083 5081 5079 5078 5077 5075 5074 5074 5073